SENTINEL-3B (43437 NORAD) Tracking and Keplerian Element Data

This shows tracking and keplerian element data for the satellite.

Feedback or suggestion? Click here.




ElementValue
Catalog43437
NameSENTINEL-3B
Epoch Orbit5133
Epoch Day110.81748342
Epoch Year2019
RAAN178.5814
Inclination98.6227
Eccentricity0.0001163
Argument of Perigee74.1311
Mean Anonmoly285.9997
Mean Motion14.26737591
Decay Rate2E-08
L11 43437U 18039A 19110.81748342 .00000002 00000-0 19013-4 0 9991
L22 43437 98.6227 178.5814 0001163 74.1311 285.9997 14.26737591 51335

Live tracking and technical data element details for SENTINEL-3B (NORAD 43437). SENTINEL-3B can be tracked NOW for your location showing map with azimuth and elevation plus other details from your city location.

Track the satellite on the map from your city or location and see movement details for azimuth, elevation, latitude, longitude, range, height, and movement on the map or in text.







IsCatalogInMostPopularTable: catalog: 43437, numindb: 238
Update: records affected: 1



GetName: 43437 SENTINEL-3B

Hit Count: updated at: Tue, 23 Apr 2019 02:34:00 GMT